Regional Weather Roundup
Issued by NWS

Home | Current Version | Previous Version | Text Only | Print | Product List | Glossary On
Versions: 1 2 3 4 5 6 7 8 9 10 11 12 13 14 15 16 17 18 19 20 21 22 23 24 25 26 27 28 29 30 31 32 33 34 35 36 37 38 39 40 41 42 43 44 45 46 47 48 49 50
000
ASUS43 KLMK 262302
RWRKY
KENTUCKY REGIONAL WEATHER ROUNDUP
NATIONAL WEATHER SERVICE LOUISVILLE KY
700 PM EDT THU APR 26 2018

NOTE "FAIR" INDICATES FEW OR NO CLOUDS BELOW 12,000 FEET
WITH NO SIGNIFICANT WEATHER AND/OR OBSTRUCTIONS TO VISIBILITY.

KYZ001>023-026-027-061>063-070>075-270000-
WESTERN AND SOUTH CENTRAL KENTUCKY

CITY           SKY/WX    TMP DP  RH WIND       PRES   REMARKS
PADUCAH        FAIR      66  44  45 NW9       29.88R
HENDERSON      FAIR      68  38  33 NW7G16    29.87S
OWENSBORO      FAIR      66  33  29 NW12      29.86S
HOPKINSVILLE   FAIR      61  54  77 SW7       29.87S
BOWLING GREEN  LGT RAIN  60  56  86 SW6       29.87S
GLASGOW        NOT AVBL
$$

KYZ024-025-028>034-038-045-046-053-270000-
NORTH CENTRAL KENTUCKY

CITY           SKY/WX    TMP DP  RH WIND       PRES   REMARKS
LOUISVILLE/SDF PTSUNNY   70  39  32 N6        29.82S
LOUISVILLE/LOU FAIR      68  39  34 W5        29.83S
FORT KNOX      CLOUDY    66  43  42 W6        29.83S
$$

KYZ035>037-039>044-047>052-055>060-089>105-270000-
NORTHEAST KENTUCKY

CITY           SKY/WX    TMP DP  RH WIND       PRES   REMARKS
LEXINGTON      CLOUDY    64  47  53 NW5       29.84S
COVINGTON      PTSUNNY   67  31  26 CALM      29.84R
FRANKFORT      FAIR      66  41  40 NW5       29.83S
$$

KYZ054-064>069-076>088-106>120-270000-
SOUTHEAST KENTUCKY

CITY           SKY/WX    TMP DP  RH WIND       PRES   REMARKS
JACKSON        LGT RAIN  59  43  55 SE3       29.85S
LONDON         LGT RAIN  55  51  86 E5        29.85S
SOMERSET       NOT AVBL
MIDDLESBORO    CLOUDY    56  52  88 CALM      29.86R
MONTICELLO     NOT AVBL
$$





USA.gov is the U.S. government's official web portal to all federal, state and local government web resources and services.